Regional Weather Roundup
Issued by NWS Jackson, KY

Home | Current Version | Previous Version | Text Only | Print | Product List | Glossary Off
Versions: 1 2 3 4 5 6 7 8 9 10 11 12 13 14 15 16 17 18 19 20 21 22 23 24 25 26 27 28 29 30 31 32 33 34 35 36 37 38 39 40 41 42 43 44 45 46 47 48 49 50

000
ASUS43 KJKL 041010
RWRJKL

EAST KENTUCKY HOURLY WEATHER ROUNDUP
NATIONAL WEATHER SERVICE JACKSON KY
600 AM EDT TUE AUG 04 2015

NOTE: "FAIR" INDICATES FEW OR NO CLOUDS BELOW 12,000 FEET WITH
NO SIGNIFICANT WEATHER AND/OR OBSTRUCTIONS TO VISIBILITY.

* THESE REPORTS ARE NOT UNDER NWS QUALITY CONTROL AND MAY NOT
  REPORT WEATHER SUCH AS PRECIPITATION AND FOG.

KYZ079-080-083-085-087-088-110-112-115-119-120-041100
...EASTERN KENTUCKY...

CITY           SKY/WX    TMP DP  RH WIND       PRES   REMARKS
JACKSON        PTCLDY    66  64  93 CALM      29.98S
LONDON         CLEAR     69  64  84 CALM      30.00S
SOMERSET*      PTCLDY    70  70 100 CALM      30.00R
MONTICELLO*    CLEAR     68  68 100 CALM      30.02R FOG
WILLIAMSBURG*  CLEAR     70  70 100 CALM      30.01S
MIDDLESBORO*   PTCLDY    68  67  97 CALM      30.02R
HAZARD APT*    SUNNY     66  66 100 CALM      29.99S FOG
BLACK MTN*       N/A     66  57  72 S3          N/A
PIKEVILLE APT* PTCLDY    66  64  94 S3        29.99S
BIG SANDY*     SUNNY     67  66  96 SW3       29.98S
MOREHEAD APT*  PTSUNNY   66  64  94 CALM      29.98S
$$

KYZ035-036-041-042-044-050-067-078-099-041100
...CENTRAL KENTUCKY...

CITY           SKY/WX    TMP DP  RH WIND       PRES   REMARKS
MT STERLING*   PTCLDY    66  66 100 SW5       29.98S
FLEMING/MASON* FOG       63  63 100 CALM      29.98R VSB 1/4
DANVILLE*      PTCLDY    70  70 100 CALM      29.99R
RICHMOND*      PTCLDY    72  68  88 S6        29.97R
LEXINGTON      CLEAR     68  65  90 S5        29.97R
FRANKFORT      PTCLDY    68  66  93 CALM      29.95R
$$

KYZ091>093-OHZ055-061-077-WVZ005-015-034-035-042-041100
...SOUTHERN OHIO/WEST VIRGINIA...

CITY           SKY/WX    TMP DP  RH WIND       PRES   REMARKS
COVINGTON      CLEAR     69  65  86 CALM      29.95R
COLUMBUS       PTCLDY    63  61  93 CALM      29.94R
DAYTON         PTCLDY    61  58  90 SW3       29.97R
WILMINGTON     PTCLDY    62  60  93 CALM      29.96R FOG
HUNTINGTON     MOCLDY    64  63  96 CALM      29.97R
CHARLESTON     CLEAR     64  60  87 CALM      29.98R
PINEVILLE*     PTCLDY    63  63 100 MISG      30.06S
BECKLEY        PTCLDY    62  57  83 S5        30.05R
BLUEFIELD      PTCLDY    68  59  73 SW10      30.06F
$$

VAZ002-007-008-TNZ017-027-036-066-071-041100
...SOUTHWEST VIRGINIA/EAST TENNESSEE...

CITY           SKY/WX    TMP DP  RH WIND       PRES   REMARKS
WISE*          PTCLDY    66  64  94 CALM      30.08R
ABINGDON*      CLOUDY    66  62  85 CALM      30.05R
BRISTOL        MOCLDY    66  62  87 S5        30.01F
KNOXVILLE      PTCLDY    69  64  84 NE3       29.99S
OAK RIDGE      CLEAR     70  67  90 CALM      30.01R
CROSSVILLE     CLEAR     67  64  90 CALM      30.05R
NASHVILLE      PTCLDY    73  68  84 S6        29.97S
$$

...KEY TO REMARKS...
VSB - VISIBILITY IN MILES
WCI - WIND CHILL INDEX
HX  - HEAT INDEX

$$



USA.gov is the U.S. government's official web portal to all federal, state and local government web resources and services.